Time,TemperatureF,DewpointF,PressureIn,WindDirection,WindDirectionDegrees,WindSpeedMPH,WindSpeedGustMPH,Humidity,HourlyPrecipIn,Conditions,Clouds,dailyrainin,SoftwareType,DateUTC
2013-12-05 00:00:00,45.0,39.0,30.10,ENE,73,2.0,4.0,78,0.00,,,-99.99,,2013-12-05 05:00:00,
2013-12-05 00:43:00,45.0,39.0,30.10,ENE,73,2.0,4.0,78,0.00,,,-99.99,,2013-12-05 05:43:00,
2013-12-05 00:53:00,45.0,39.0,30.10,ENE,73,2.0,4.0,78,0.00,,,-99.99,,2013-12-05 05:53:00,
2013-12-05 01:00:00,46.0,39.0,30.09,ESE,109,0.0,4.0,79,0.00,,,-99.99,,2013-12-05 06:00:00,
2013-12-05 01:43:00,46.0,39.0,30.09,ESE,109,0.0,4.0,79,0.00,,,-99.99,,2013-12-05 06:43:00,
2013-12-05 01:52:00,46.0,39.0,30.09,ESE,109,0.0,4.0,79,0.00,,,-99.99,,2013-12-05 06:52:00,
2013-12-05 02:00:00,45.0,40.0,30.09,ENE,63,0.0,4.0,83,0.00,,,-99.99,,2013-12-05 07:00:00,
2013-12-05 02:42:00,45.0,40.0,30.09,ENE,63,0.0,4.0,83,0.00,,,-99.99,,2013-12-05 07:42:00,
2013-12-05 02:52:00,45.0,40.0,30.09,ENE,63,0.0,4.0,83,0.00,,,-99.99,,2013-12-05 07:52:00,
2013-12-05 03:00:00,45.0,42.0,30.10,NNE,23,0.0,0.0,90,0.00,,,-99.99,,2013-12-05 08:00:00,
2013-12-05 03:42:00,45.0,42.0,30.10,NNE,23,0.0,0.0,90,0.00,,,-99.99,,2013-12-05 08:42:00,
2013-12-05 03:53:00,45.0,42.0,30.10,NNE,23,0.0,0.0,90,0.00,,,-99.99,,2013-12-05 08:53:00,
2013-12-05 04:00:00,45.0,43.0,30.09,ESE,104,0.0,4.0,92,0.01,,,-99.99,,2013-12-05 09:00:00,
2013-12-05 04:43:00,45.0,43.0,30.09,ESE,104,0.0,4.0,92,0.01,,,-99.99,,2013-12-05 09:43:00,
2013-12-05 04:54:00,45.0,43.0,30.09,ESE,104,0.0,4.0,92,0.01,,,-99.99,,2013-12-05 09:54:00,
2013-12-05 05:00:00,45.0,43.0,30.08,North,352,0.0,4.0,93,0.00,,,-99.99,,2013-12-05 10:00:00,
2013-12-05 05:43:00,45.0,43.0,30.08,North,352,0.0,4.0,93,0.00,,,-99.99,,2013-12-05 10:43:00,
2013-12-05 05:53:00,45.0,43.0,30.08,North,352,0.0,4.0,93,0.00,,,-99.99,,2013-12-05 10:53:00,
2013-12-05 06:00:00,45.0,43.0,30.07,North,11,0.0,4.0,93,0.00,,,-99.99,,2013-12-05 11:00:00,
2013-12-05 06:42:00,45.0,43.0,30.07,North,11,0.0,4.0,93,0.00,,,-99.99,,2013-12-05 11:42:00,
2013-12-05 06:53:00,45.0,43.0,30.07,North,11,0.0,4.0,93,0.00,,,-99.99,,2013-12-05 11:53:00,
2013-12-05 07:00:00,45.0,43.0,30.06,NW,323,3.0,4.0,94,0.00,,,-99.99,,2013-12-05 12:00:00,
2013-12-05 07:42:00,45.0,43.0,30.06,NW,323,3.0,4.0,94,0.00,,,-99.99,,2013-12-05 12:42:00,
2013-12-05 07:52:00,45.0,43.0,30.06,NW,323,3.0,4.0,94,0.00,,,-99.99,,2013-12-05 12:52:00,
2013-12-05 08:00:00,46.0,44.0,30.07,West,281,0.0,4.0,94,0.00,,,-99.99,,2013-12-05 13:00:00,
2013-12-05 08:42:00,46.0,44.0,30.07,West,281,0.0,4.0,94,0.00,,,-99.99,,2013-12-05 13:42:00,
2013-12-05 08:52:00,46.0,44.0,30.07,West,281,0.0,4.0,94,0.00,,,-99.99,,2013-12-05 13:52:00,
2013-12-05 09:00:00,46.0,44.0,30.06,NNW,347,2.0,4.0,94,0.00,,,-99.99,,2013-12-05 14:00:00,
2013-12-05 09:42:00,46.0,44.0,30.06,NNW,347,2.0,4.0,94,0.00,,,-99.99,,2013-12-05 14:42:00,
2013-12-05 09:52:00,46.0,44.0,30.06,NNW,347,2.0,4.0,94,0.00,,,-99.99,,2013-12-05 14:52:00,
2013-12-05 10:00:00,48.0,46.0,30.06,West,263,0.0,2.0,94,0.00,,,-99.99,,2013-12-05 15:00:00,
2013-12-05 10:43:00,48.0,46.0,30.06,West,263,0.0,2.0,94,0.00,,,-99.99,,2013-12-05 15:43:00,
2013-12-05 10:54:00,48.0,46.0,30.06,West,263,0.0,2.0,94,0.00,,,-99.99,,2013-12-05 15:54:00,
2013-12-05 11:00:00,49.0,47.0,30.05,North,353,0.0,1.0,94,0.00,,,-99.99,,2013-12-05 16:00:00,
2013-12-05 11:43:00,49.0,47.0,30.05,North,353,0.0,1.0,94,0.00,,,-99.99,,2013-12-05 16:43:00,
2013-12-05 11:53:00,49.0,47.0,30.05,North,353,0.0,1.0,94,0.00,,,-99.99,,2013-12-05 16:53:00,
2013-12-05 12:00:00,49.0,48.0,30.01,East,82,0.0,-999.0,94,-99.99,,,-99.99,,2013-12-05 17:00:00,
2013-12-05 12:42:00,49.0,48.0,30.01,East,82,0.0,-999.0,94,-99.99,,,-99.99,,2013-12-05 17:42:00,
2013-12-05 12:52:00,49.0,48.0,30.01,East,82,0.0,-999.0,94,-99.99,,,-99.99,,2013-12-05 17:52:00,
2013-12-05 13:00:00,50.0,49.0,29.98,North,9,0.0,3.0,95,0.00,,,-99.99,,2013-12-05 18:00:00,
2013-12-05 13:42:00,50.0,49.0,29.98,North,9,0.0,3.0,95,0.00,,,-99.99,,2013-12-05 18:42:00,
2013-12-05 13:52:00,50.0,49.0,29.98,North,9,0.0,3.0,95,0.00,,,-99.99,,2013-12-05 18:52:00,
2013-12-05 14:00:00,51.0,49.0,29.97,NNE,27,0.0,0.0,95,0.00,,,-99.99,,2013-12-05 19:00:00,
2013-12-05 14:42:00,51.0,49.0,29.97,NNE,27,0.0,0.0,95,0.00,,,-99.99,,2013-12-05 19:42:00,
2013-12-05 14:52:00,51.0,49.0,29.97,NNE,27,0.0,0.0,95,0.00,,,-99.99,,2013-12-05 19:52:00,
2013-12-05 15:00:00,51.0,50.0,29.97,ENE,64,2.0,4.0,95,0.00,,,-99.99,,2013-12-05 20:00:00,
2013-12-05 15:42:00,51.0,50.0,29.97,ENE,64,2.0,4.0,95,0.00,,,-99.99,,2013-12-05 20:42:00,
2013-12-05 15:52:00,51.0,50.0,29.97,ENE,64,2.0,4.0,95,0.00,,,-99.99,,2013-12-05 20:52:00,
2013-12-05 16:00:00,51.0,50.0,29.96,SE,142,0.0,3.0,95,0.00,,,-99.99,,2013-12-05 21:00:00,
2013-12-05 16:44:00,51.0,50.0,29.96,SE,142,0.0,3.0,95,0.00,,,-99.99,,2013-12-05 21:44:00,
2013-12-05 16:53:00,51.0,50.0,29.96,SE,142,0.0,3.0,95,0.00,,,-99.99,,2013-12-05 21:53:00,
2013-12-05 17:00:00,51.0,49.0,29.96,WNW,293,0.0,0.0,95,0.00,,,-99.99,,2013-12-05 22:00:00,
2013-12-05 17:42:00,51.0,49.0,29.96,WNW,293,0.0,0.0,95,0.00,,,-99.99,,2013-12-05 22:42:00,
2013-12-05 17:52:00,51.0,49.0,29.96,WNW,293,0.0,0.0,95,0.00,,,-99.99,,2013-12-05 22:52:00,
2013-12-05 18:00:00,52.0,50.0,29.99,NNE,19,0.0,0.0,95,0.00,,,-99.99,,2013-12-05 23:00:00,
2013-12-05 18:43:00,52.0,50.0,29.99,NNE,19,0.0,0.0,95,0.00,,,-99.99,,2013-12-05 23:43:00,
2013-12-05 18:53:00,52.0,50.0,29.99,NNE,19,0.0,0.0,95,0.00,,,-99.99,,2013-12-05 23:53:00,
2013-12-05 19:00:00,51.0,50.0,29.96,SSE,156,0.0,0.0,95,0.00,,,-99.99,,2013-12-06 00:00:00,
2013-12-05 19:42:00,51.0,50.0,29.96,SSE,156,0.0,0.0,95,0.00,,,-99.99,,2013-12-06 00:42:00,
2013-12-05 19:52:00,51.0,50.0,29.96,SSE,156,0.0,0.0,95,0.00,,,-99.99,,2013-12-06 00:52:00,
2013-12-05 20:00:00,50.0,49.0,29.96,SW,223,0.0,0.0,95,0.00,,,-99.99,,2013-12-06 01:00:00,
2013-12-05 20:42:00,50.0,49.0,29.96,SW,223,0.0,0.0,95,0.00,,,-99.99,,2013-12-06 01:42:00,
2013-12-05 20:52:00,50.0,49.0,29.96,SW,223,0.0,0.0,95,0.00,,,-99.99,,2013-12-06 01:52:00,
2013-12-05 21:00:00,51.0,50.0,29.95,South,169,0.0,0.0,95,0.01,,,-99.99,,2013-12-06 02:00:00,
2013-12-05 21:42:00,51.0,50.0,29.95,South,169,0.0,0.0,95,0.01,,,-99.99,,2013-12-06 02:42:00,
2013-12-05 21:52:00,51.0,50.0,29.95,South,169,0.0,0.0,95,0.01,,,-99.99,,2013-12-06 02:52:00,
2013-12-05 22:00:00,51.0,50.0,29.93,SE,132,0.0,0.0,95,0.00,,,-99.99,,2013-12-06 03:00:00,
2013-12-05 22:44:00,51.0,50.0,29.93,SE,132,0.0,0.0,95,0.00,,,-99.99,,2013-12-06 03:44:00,
2013-12-05 22:53:00,51.0,50.0,29.93,SE,132,0.0,0.0,95,0.00,,,-99.99,,2013-12-06 03:53:00,
2013-12-05 23:00:00,52.0,51.0,29.93,SSW,213,0.0,0.0,95,0.00,,,-99.99,,2013-12-06 04:00:00,
2013-12-05 23:43:00,52.0,51.0,29.93,SSW,213,0.0,0.0,95,0.00,,,-99.99,,2013-12-06 04:43:00,
2013-12-05 23:53:00,52.0,51.0,29.93,SSW,213,0.0,0.0,95,0.00,,,-99.99,,2013-12-06 04:53:00,